Change the Weather History Date:

Wednesday, December 5, 2012

  Actual Average Record
Temperature  
Mean Temperature -26 °F -  
Max Temperature -9 °F 7 °F 39 °F (1997)
Min Temperature -43 °F -1 °F -43 °F (2012)
Degree Days  
Heating Degree Days 91    
Moisture  
Dew Point -27 °F    
Average Humidity 67    
Maximum Humidity 78    
Minimum Humidity 48    
Precipitation  
Precipitation 0.00 in - - ()
Sea Level Pressure  
Sea Level Pressure 30.00 in    
Wind  
Wind Speed 5 mph (ESE)    
Max Wind Speed 25 mph    
Max Gust Speed 33 mph    
Visibility 9 miles    
Events Snow    
Averages and records for this station are not official NWS values.
T = Trace of Precipitation, MM = Missing Value Source: NWS Daily Summary

Daily Weather History Graph

Daily Weather History Graph

Search for Another Location

Airport or City:

Trip Planner

Search our weather history database for the weather conditions in past years. The results will help you decide how hot, cold, wet, or windy it might be!

Date:

Astronomy

Dec. 05, 2012 Rise Set
Actual Time 10:11 AM AKST 2:56 PM AKST
Civil Twilight 8:58 AM AKST 4:08 PM AKST
Nautical Twilight 7:52 AM AKST 5:15 PM AKST
Astronomical Twilight 6:53 AM AKST 6:13 PM AKST
Moon No Moon Rise 12:41 PM AKST (12/5)
Length of Visible Light 7h 10m
Length of Day
4h 44m
Waning Gibbous, 58% of the Moon is Illuminated
Dec 5
Waning Gibbous
Dec 6
Last Quarter
Dec 12
New
Dec 19
First Quarter
Dec 28
Full

Hourly Weather History & Observations

Time (AKST) Temp. Windchill Dew Point Humidity Pressure Visibility Wind Dir Wind Speed Gust Speed Precip Events Conditions
12:53 AM -29.9 °F - - N/A% 30.02 in 10.0 mi Calm Calm - N/A   Clear
1:53 AM -31.0 °F - - N/A% 30.02 in 10.0 mi Calm Calm - N/A   Overcast
2:53 AM -27.0 °F - -33.0 °F 73% 30.01 in 10.0 mi Calm Calm - N/A   Overcast
3:53 AM -26.0 °F - -33.0 °F 69% 30.01 in 10.0 mi Calm Calm - N/A   Overcast
5:53 AM -29.0 °F - -36.0 °F 69% 30.01 in 10.0 mi Calm Calm - N/A   Overcast
6:53 AM -27.9 °F -39.8 °F -34.1 °F 73% 30.00 in 10.0 mi ESE 3.5 mph - 0.00 in Snow Light Snow
7:53 AM -26.0 °F -40.2 °F -33.0 °F 69% 30.00 in 9.0 mi SE 4.6 mph - 0.00 in   Mostly Cloudy
8:53 AM -27.9 °F - -34.1 °F 73% 30.01 in 10.0 mi Calm Calm - N/A   Scattered Clouds
9:53 AM -27.9 °F - -35.0 °F 69% 30.01 in 10.0 mi Calm Calm - N/A   Partly Cloudy
10:53 AM -27.0 °F - -32.1 °F 77% 30.01 in 7.0 mi Calm Calm - N/A   Overcast
11:53 AM -25.6 °F - -31.0 °F 76% 29.75 in 10.0 mi Calm Calm - N/A   Overcast
12:53 PM -14.1 °F -33.7 °F -20.9 °F 71% 29.99 in 10.0 mi ESE 10.4 mph - N/A   Overcast
1:53 PM -11.0 °F -34.2 °F -18.9 °F 68% 29.99 in 10.0 mi ESE 16.1 mph 23.0 mph N/A   Mostly Cloudy
2:53 PM -11.0 °F -36.2 °F -20.0 °F 64% 29.98 in 6.0 mi ESE 19.6 mph 31.1 mph N/A   Haze
3:53 PM -11.0 °F -39.0 °F -20.0 °F 64% 29.98 in 4.0 mi ESE 25.3 mph 33.4 mph N/A   Haze
4:53 PM -11.9 °F -39.1 °F -20.9 °F 64% 29.99 in 7.0 mi ESE 23.0 mph 32.2 mph N/A   Overcast
5:53 PM -11.9 °F -38.6 °F -20.9 °F 64% 30.00 in 9.0 mi ESE 21.9 mph 31.1 mph N/A   Overcast
6:53 PM -11.9 °F -38.0 °F -20.9 °F 64% 29.99 in 8.0 mi ESE 20.7 mph 27.6 mph N/A   Mostly Cloudy
7:53 PM -11.0 °F -36.8 °F -20.9 °F 62% 29.99 in 10.0 mi ESE 20.7 mph 28.8 mph N/A   Scattered Clouds
8:53 PM -11.9 °F -33.0 °F -20.9 °F 64% 30.01 in 10.0 mi SE 12.7 mph - N/A   Scattered Clouds
9:53 PM -13.0 °F -27.0 °F -20.9 °F 68% 30.02 in 10.0 mi East 5.8 mph - N/A   Scattered Clouds
10:53 PM -20.0 °F -33.3 °F -26.0 °F 74% 30.03 in 10.0 mi WSW 4.6 mph - N/A   Clear
11:53 PM -23.1 °F -34.2 °F -27.9 °F 78% 30.04 in 10.0 mi West 3.5 mph - N/A   Clear